Hourly Weather Roundup
Issued by NWS Central Illinois

Home | Current Version | Previous Version | Text Only | Print | Product List | Glossary On
Versions: 1 2 3 4 5 6 7 8 9 10 11 12 13 14 15 16 17 18 19 20 21 22 23 24 25 26 27 28 29 30 31 32 33 34 35 36 37 38 39 40 41 42 43 44 45 46 47 48 49 50
000
NZUS43 KILX 202210
HWRILX

AREA WEATHER ROUNDUP
NATIONAL WEATHER SERVICE, LINCOLN IL
500 PM CDT WED AUG 20 2014


CITY           SKY/WX    TMP DP  RH WIND       PRES   REMARKS
BLOOMINGTON    LGT RAIN  80  67  64 SW15      29.94F HX  82
CHAMPAIGN      CLOUDY    79  70  74 SW13      29.94S HX  82
DECATUR        PTSUNNY   81  69  67 SW12      29.94F HX  84
FLORA          PTSUNNY   80  67  65 CALM      29.97S HX  82
GALESBURG      CLOUDY    76  71  83 S5        29.92F
JACKSONVILLE   MOSUNNY   83  74  74 S9        29.95S HX  89
LACON          RAIN      76  67  76 SW7       29.94R
LAWRENCEVILLE  PTSUNNY   78  70  76 SW6       29.95R HX  80
LITCHFIELD     PTSUNNY   77  70  80 SE6       29.96F
$$


CITY           SKY/WX    TMP DP  RH WIND       PRES   REMARKS
LINCOLN        PTSUNNY   82  69  64 SW3       29.90F HX  86
MACOMB         PTSUNNY   80  72  76 SW10      29.94S HX  84
MATTOON        PTSUNNY   77  70  79 SW7       29.95S
MT CARMEL AP   PTSUNNY   81  72  74 CALM      29.95R HX  84
OLNEY-NOBLE AP PTSUNNY   81  70  69 CALM      29.96S HX  84
PARIS          PTSUNNY   74  71  90 SW3       29.94F
PEORIA         CLOUDY    79  68  69 W6        29.95R HX  81
PONTIAC        NOT AVBL
RANTOUL        PTSUNNY   79  69  70 SW12      29.93F HX  82
ROBINSON       PTSUNNY   82  73  75 SW6       29.94S HX  87
SPRINGFIELD    MOSUNNY   83  72  69 S12       29.94S HX  88
TAYLORVILLE    SUNNY     79  72  78 S6        29.95F HX  82
$$

...REGIONAL REPORTS...


CITY           SKY/WX    TMP DP  RH WIND       PRES   REMARKS
CHICAGO O`HARE PTSUNNY   85  63  47 W12       29.87R HX  86
KANKAKEE       MOSUNNY   82  72  71 W7        29.89F HX  86
MOLINE         CLOUDY    75  68  78 SW12      29.92R
MOUNT VERNON   CLOUDY    82  70  65 CALM      29.97S HX  86
PITTSFIELD     PTSUNNY   86  75  71 SE6       29.94F HX  95
QUINCY         PTSUNNY   84  74  71 S8        29.92F HX  91
ROCKFORD       PTSUNNY   85  66  53 S12       29.90R HX  87
$$


CITY           SKY/WX    TMP DP  RH WIND       PRES   REMARKS
BURLINGTON     PTSUNNY   82  72  71 S12       29.91R HX  87
CEDAR RAPIDS   CLOUDY    73  69  87 S9        29.88R
DES MOINES     CLOUDY    83  71  67 S9        29.86R HX  87
KIRKSVILLE     MOSUNNY   86  75  69 SE10      29.92F HX  95
OTTUMWA        PTSUNNY   81  71  71 S5        29.89R HX  85
ST LOUIS       MOSUNNY   87  73  62 E10       29.94F HX  94
$$


CITY           SKY/WX    TMP DP  RH WIND       PRES   REMARKS
TERRE HAUTE    PTSUNNY   75  68  78 W7        29.93S
EVANSVILLE     MOSUNNY   83  67  58 E6        29.97S HX  85
INDIANAPOLIS   CLOUDY    79  65  62 SW7       29.92F HX  81
LAFAYETTE      MOSUNNY   80  68  66 W10       29.90S HX  83
MADISON        PTSUNNY   83  65  54 W5        29.86S HX  85
MILWAUKEE      MOSUNNY   74  66  76 E12       29.87S
$$





USA.gov is the U.S. government's official web portal to all federal, state and local government web resources and services.